EW7868 Weather Reports


Display with metric or nautical units.
time (UTC)temp
F
wind
direction
speed
MPH
gust
MPH
rain 1hr
in
rain 24hr
in
rain mn
in
humidity
%
barometer
mb
20260903060446 78 246 0.0 3.0 0.00 0.00 0.00 91 1012.2
20260903055944 78 215 0.0 2.0 0.00 0.00 0.00 90 1012.2
20260903055443 79 209 2.0 2.0 0.00 0.00 0.00 90 1012.3
20260903054942 79 217 0.0 2.0 0.00 0.00 0.00 90 1012.2
20260903054437 78 204 2.0 2.0 0.00 0.00 0.00 90 1012.1
20260903053933 79 209 0.0 3.0 0.00 0.00 0.00 90 1012.2
20260903053433 79 220 0.0 2.0 0.00 0.00 0.00 89 1012.2
20260903052930 79 220 0.0 2.0 0.00 0.00 0.00 89 1012.2
20260903052426 79 198 0.0 3.0 0.00 0.00 0.00 89 1012.1
20260903051921 80 207 3.0 3.0 0.00 0.00 0.00 88 1012.0
20260903051416 80 209 0.0 3.0 0.00 0.00 0.00 89 1012.0
20260903050912 80 203 0.0 2.0 0.00 0.00 0.00 88 1012.0
20260903050410 80 208 2.0 3.0 0.00 0.00 0.00 89 1012.0
20260903045905 80 203 2.0 4.0 0.00 0.00 0.00 88 1011.9
20260903045401 80 229 0.0 3.0 0.00 0.00 0.00 88 1012.0
20260903044858 80 198 1.0 3.0 0.00 0.00 0.00 88 1012.0
20260903044357 80 206 3.0 5.0 0.00 0.00 0.00 88 1011.9
20260903043854 80 206 3.0 3.0 0.00 0.00 0.00 89 1011.8
20260903043349 80 195 2.0 3.0 0.00 0.00 0.00 89 1012.1
20260903042848 80 203 0.0 2.0 0.00 0.00 0.00 89 1012.0
20260903042343 80 192 1.0 3.0 0.00 0.00 0.00 88 1012.0
20260903041839 80 209 0.0 3.0 0.00 0.00 0.00 88 1011.8
20260903041335 80 221 0.0 4.0 0.00 0.00 0.00 89 1012.1
20260903040831 80 202 4.0 5.0 0.00 0.00 0.00 89 1011.8
20260903040329 80 257 1.0 3.0 0.00 0.00 0.00 89 1012.0
20260903035826 80 212 2.0 4.0 0.00 0.00 0.00 89 1012.0
20260903035321 80 185 2.0 4.0 0.00 0.00 0.00 89 1011.9
20260903034816 80 205 3.0 4.0 0.00 0.00 0.00 89 1011.9
20260903034311 80 190 3.0 3.0 0.00 0.00 0.00 89 1011.8
20260903033806 81 203 0.0 2.0 0.00 0.00 0.00 89 1011.8
20260903033301 81 195 1.0 2.0 0.00 0.00 0.00 88 1011.8
20260903032755 81 203 2.0 2.0 0.00 0.00 0.00 88 1011.7
20260903032252 81 197 0.0 4.0 0.00 0.00 0.00 87 1011.9
20260903031747 82 203 1.0 3.0 0.00 0.00 0.00 87 1012.0
20260903031241 82 199 2.0 2.0 0.00 0.00 0.00 86 1011.9
20260903030737 82 203 0.0 4.0 0.00 0.00 0.00 86 1012.0
20260903030233 82 197 3.0 4.0 0.00 0.00 0.00 86 1011.8
20260903025728 82 206 2.0 2.0 0.00 0.00 0.00 86 1011.8
20260903025224 82 209 0.0 2.0 0.00 0.00 0.00 85 1011.8
20260903024723 82 208 0.0 3.0 0.00 0.00 0.00 85 1011.9
20260903024222 82 208 3.0 3.0 0.00 0.00 0.00 84 1011.8
20260903023719 82 196 2.0 3.0 0.00 0.00 0.00 84 1011.8
20260903023214 82 209 0.0 3.0 0.00 0.00 0.00 84 1012.1
20260903022714 83 215 1.0 3.0 0.00 0.00 0.00 84 1011.8
20260903022212 83 220 2.0 4.0 0.00 0.00 0.00 84 1011.8
20260903021707 83 194 3.0 3.0 0.00 0.00 0.00 83 1011.7
20260903021202 84 205 0.0 5.0 0.00 0.00 0.00 82 1011.9
20260903020657 84 206 1.0 4.0 0.00 0.00 0.00 82 1011.9
20260903020157 84 203 0.0 4.0 0.00 0.00 0.00 81 1011.6
20260903015652 84 192 1.0 6.0 0.00 0.00 0.00 81 1011.6
20260903015148 84 206 0.0 7.0 0.00 0.00 0.00 81 1011.5
20260903014648 84 229 3.0 5.0 0.00 0.00 0.00 81 1011.6
20260903014142 84 211 3.0 5.0 0.00 0.00 0.00 82 1011.4
20260903013637 84 212 2.0 3.0 0.00 0.00 0.00 82 1011.7
20260903013136 85 195 2.0 4.0 0.00 0.00 0.00 81 1011.5
20260903012635 85 202 3.0 4.0 0.00 0.00 0.00 81 1011.5
20260903012135 85 210 2.0 5.0 0.00 0.00 0.00 81 1011.4
20260903011634 85 202 2.0 4.0 0.00 0.00 0.00 81 1011.4
20260903011129 85 208 3.0 3.0 0.00 0.00 0.00 81 1011.5
20260903010624 86 208 2.0 3.0 0.00 0.00 0.00 80 1011.3
20260903010123 86 195 0.0 3.0 0.00 0.00 0.00 80 1011.5
20260903005618 86 196 0.0 3.0 0.00 0.00 0.00 79 1011.2
20260903005113 86 206 3.0 5.0 0.00 0.00 0.00 79 1011.2
20260903004608 86 190 3.0 5.0 0.00 0.00 0.00 78 1011.0
20260903004103 87 200 4.0 6.0 0.00 0.00 0.00 78 1011.3
20260903003558 87 201 3.0 5.0 0.00 0.00 0.00 77 1011.1
20260903003054 87 192 3.0 5.0 0.00 0.00 0.00 77 1011.2
20260903002548 87 200 0.0 3.0 0.00 0.00 0.00 77 1011.3
20260903002043 88 190 5.0 5.0 0.00 0.00 0.00 77 1011.2
20260903001537 88 194 1.0 3.0 0.00 0.00 0.00 76 1011.3
20260903001037 89 190 5.0 5.0 0.00 0.00 0.00 75 1011.1
20260903000533 89 201 3.0 5.0 0.00 0.00 0.00 74 1011.2
20260903000032 89 180 2.0 5.0 0.00 0.00 0.00 74 1011.2
20260902235525 89 188 2.0 7.0 0.00 0.00 0.00 74 1011.2
20260902235021 89 203 5.0 5.0 0.00 0.00 0.00 74 1011.2
20260902234520 89 189 4.0 4.0 0.00 0.00 0.00 74 1011.2
20260902234019 90 198 3.0 4.0 0.00 0.00 0.00 74 1011.3
20260902233514 90 219 3.0 4.0 0.00 0.00 0.00 74 1011.4
20260902233008 90 192 5.0 5.0 0.00 0.00 0.00 73 1011.5
20260902232502 90 203 0.0 4.0 0.00 0.00 0.00 73 1011.5
20260902231956 90 192 2.0 5.0 0.00 0.00 0.00 73 1011.5
20260902231451 91 204 2.0 5.0 0.00 0.00 0.00 72 1011.5
20260902230946 91 199 2.0 4.0 0.00 0.00 0.00 71 1011.5
20260902230446 91 203 1.0 4.0 0.00 0.00 0.00 71 1011.6
20260902225939 92 201 4.0 4.0 0.00 0.00 0.00 70 1011.4
20260902225435 92 198 0.0 5.0 0.00 0.00 0.00 69 1011.4
20260902224934 93 199 3.0 4.0 0.00 0.00 0.00 68 1011.6
20260902224433 93 194 0.0 5.0 0.00 0.00 0.00 67 1011.5
20260902223930 94 194 3.0 6.0 0.00 0.00 0.00 65 1011.5
20260902223425 95 201 2.0 5.0 0.00 0.00 0.00 65 1011.6
20260902222924 96 205 3.0 4.0 0.00 0.00 0.00 65 1011.6
20260902222422 95 233 0.0 5.0 0.00 0.00 0.00 64 1011.7
20260902221917 95 204 3.0 4.0 0.00 0.00 0.00 64 1011.8
20260902221416 95 193 4.0 6.0 0.00 0.00 0.00 62 1011.9
20260902220912 96 201 4.0 4.0 0.00 0.00 0.00 63 1011.6
20260902220411 96 194 2.0 6.0 0.00 0.00 0.00 62 1011.6
20260902215907 96 198 3.0 5.0 0.00 0.00 0.00 61 1011.6
20260902215402 96 194 3.0 6.0 0.00 0.00 0.00 61 1011.7
20260902214858 96 203 3.0 6.0 0.00 0.00 0.00 62 1011.6
20260902214357 95 206 3.0 5.0 0.00 0.00 0.00 62 1011.7
20260902213851 96 209 2.0 6.0 0.00 0.00 0.00 60 1011.5
20260902213348 96 192 5.0 8.0 0.00 0.00 0.00 61 1011.8
20260902212846 96 195 1.0 6.0 0.00 0.00 0.00 62 1011.8
20260902212343 95 197 3.0 6.0 0.00 0.00 0.00 62 1011.8
20260902211839 95 194 3.0 7.0 0.00 0.00 0.00 62 1011.8
20260902211335 96 266 3.0 7.0 0.00 0.00 0.00 61 1011.9
20260902210829 96 196 3.0 8.0 0.00 0.00 0.00 61 1011.9
20260902210329 96 203 3.0 5.0 0.00 0.00 0.00 62 1012.0
20260902205827 97 198 3.0 7.0 0.00 0.00 0.00 59 1011.8
20260902205322 97 216 2.0 7.0 0.00 0.00 0.00 59 1011.9
20260902204818 97 194 3.0 9.0 0.00 0.00 0.00 58 1011.9
20260902204312 97 197 4.0 8.0 0.00 0.00 0.00 58 1011.9
20260902203808 97 200 5.0 6.0 0.00 0.00 0.00 59 1012.2
20260902203303 97 180 2.0 8.0 0.00 0.00 0.00 60 1011.9
20260902202757 98 197 4.0 6.0 0.00 0.00 0.00 58 1011.9
20260902202254 98 109 2.0 6.0 0.00 0.00 0.00 62 1011.9
20260902201750 97 186 4.0 7.0 0.00 0.00 0.00 59 1012.0
20260902201249 97 194 5.0 7.0 0.00 0.00 0.00 58 1012.0
20260902200745 98 194 0.0 5.0 0.00 0.00 0.00 59 1012.2
20260902200240 97 202 4.0 6.0 0.00 0.00 0.00 58 1012.2
20260902195736 97 210 5.0 7.0 0.00 0.00 0.00 59 1012.1
20260902195235 97 28 2.0 9.0 0.00 0.00 0.00 58 1012.3
20260902194734 98 236 3.0 5.0 0.00 0.00 0.00 60 1012.3
20260902194230 97 194 5.0 5.0 0.00 0.00 0.00 58 1012.3
20260902193725 97 16 0.0 6.0 0.00 0.00 0.00 59 1012.3
20260902193220 97 206 2.0 5.0 0.00 0.00 0.00 60 1012.4
20260902192719 96 195 4.0 5.0 0.00 0.00 0.00 60 1012.5
20260902192213 96 251 3.0 6.0 0.00 0.00 0.00 59 1012.6
20260902191713 95 165 2.0 8.0 0.00 0.00 0.00 62 1012.4
20260902191207 95 194 3.0 8.0 0.00 0.00 0.00 64 1012.5
20260902190703 96 194 4.0 7.0 0.00 0.00 0.00 62 1012.4
20260902190157 95 221 2.0 5.0 0.00 0.00 0.00 65 1012.4
20260902185653 95 219 4.0 5.0 0.00 0.00 0.00 63 1012.6
20260902185149 95 182 4.0 8.0 0.00 0.00 0.00 62 1012.7
20260902184649 96 195 4.0 6.0 0.00 0.00 0.00 62 1012.6
20260902184145 96 195 5.0 6.0 0.00 0.00 0.00 61 1012.7
20260902183641 95 208 3.0 5.0 0.00 0.00 0.00 65 1012.5
20260902183137 95 75 1.0 5.0 0.00 0.00 0.00 63 1012.8
20260902182633 95 180 2.0 9.0 0.00 0.00 0.00 65 1012.7
20260902182129 95 195 2.0 5.0 0.00 0.00 0.00 65 1012.8
20260902181625 95 205 6.0 6.0 0.00 0.00 0.00 65 1012.8
20260902181124 94 191 4.0 5.0 0.00 0.00 0.00 64 1012.8
20260902180619 94 199 2.0 6.0 0.00 0.00 0.00 64 1012.9
20260902180116 93 196 5.0 8.0 0.00 0.00 0.00 64 1012.9
20260902175615 93 200 4.0 7.0 0.00 0.00 0.00 65 1012.8
20260902175110 93 191 2.0 8.0 0.00 0.00 0.00 66 1013.1
20260902174607 92 243 3.0 8.0 0.00 0.00 0.00 64 1013.1
20260902174102 92 196 0.0 5.0 0.00 0.00 0.00 67 1012.9
20260902173601 91 201 0.0 7.0 0.00 0.00 0.00 67 1013.1
20260902173057 91 202 0.0 8.0 0.00 0.00 0.00 68 1012.9
20260902172551 91 208 2.0 5.0 0.00 0.00 0.00 66 1013.0
20260902172046 92 198 3.0 6.0 0.00 0.00 0.00 68 1013.2
20260902171542 90 204 2.0 7.0 0.00 0.00 0.00 68 1013.1
20260902171037 90 195 5.0 8.0 0.00 0.00 0.00 68 1013.0
20260902170532 90 210 4.0 9.0 0.00 0.00 0.00 70 1013.3
20260902170028 90 193 3.0 5.0 0.00 0.00 0.00 70 1013.3
20260902165527 90 198 4.0 5.0 0.00 0.00 0.00 69 1013.3
20260902165022 90 193 3.0 6.0 0.00 0.00 0.00 69 1013.3
20260902164517 90 198 0.0 5.0 0.00 0.00 0.00 69 1013.4
20260902164016 90 187 0.0 6.0 0.00 0.00 0.00 69 1013.5
20260902163512 90 233 3.0 5.0 0.00 0.00 0.00 69 1013.4
20260902163010 90 270 0.0 5.0 0.00 0.00 0.00 70 1013.4
20260902162510 90 8 0.0 2.0 0.00 0.00 0.00 71 1013.6
20260902162005 89 247 4.0 5.0 0.00 0.00 0.00 69 1013.8
20260902161500 89 194 6.0 8.0 0.00 0.00 0.00 69 1013.4
20260902160956 89 5 2.0 3.0 0.00 0.00 0.00 71 1013.5
20260902160451 89 90 2.0 4.0 0.00 0.00 0.00 72 1013.6
20260902155949 88 90 0.0 2.0 0.00 0.00 0.00 73 1013.8
20260902155444 88 195 0.0 4.0 0.00 0.00 0.00 75 1013.8
20260902154938 87 261 1.0 4.0 0.00 0.00 0.00 74 1013.7
20260902154434 87 304 0.0 4.0 0.00 0.00 0.00 75 1013.6
20260902153933 86 193 6.0 6.0 0.00 0.00 0.00 74 1013.2
20260902153432 86 202 3.0 6.0 0.00 0.00 0.00 75 1013.1
20260902152928 86 255 2.0 9.0 0.00 0.00 0.00 75 1013.4
20260902152424 86 209 2.0 7.0 0.00 0.00 0.00 75 1013.3
20260902151919 85 199 6.0 7.0 0.00 0.00 0.00 76 1013.2
20260902151414 85 208 4.0 6.0 0.00 0.00 0.00 77 1013.3
20260902150909 84 188 0.0 8.0 0.00 0.00 0.00 77 1013.5
20260902150405 85 198 6.0 7.0 0.00 0.00 0.00 77 1013.1
20260902145904 85 197 3.0 6.0 0.00 0.00 0.00 78 1013.3
20260902145400 84 195 3.0 5.0 0.00 0.00 0.00 78 1013.2
20260902144854 84 203 2.0 7.0 0.00 0.00 0.00 79 1013.2
20260902144351 84 209 2.0 6.0 0.00 0.00 0.00 77 1013.5
20260902143845 84 225 3.0 6.0 0.00 0.00 0.00 79 1013.5
20260902143340 83 205 3.0 6.0 0.00 0.00 0.00 79 1013.1
20260902142836 83 207 3.0 7.0 0.00 0.00 0.00 80 1013.2
20260902142332 83 204 4.0 5.0 0.00 0.00 0.00 80 1013.2
20260902141826 83 205 3.0 5.0 0.00 0.00 0.00 80 1013.3
20260902141322 82 201 0.0 5.0 0.00 0.00 0.00 80 1013.4
20260902140821 82 191 3.0 5.0 0.00 0.00 0.00 80 1013.5
20260902140317 82 225 2.0 8.0 0.00 0.00 0.00 80 1013.5
20260902135816 82 201 3.0 6.0 0.00 0.00 0.00 80 1013.5
20260902135312 82 205 5.0 7.0 0.00 0.00 0.00 79 1013.5
20260902134811 82 207 5.0 5.0 0.00 0.00 0.00 81 1013.5
20260902134307 81 195 6.0 7.0 0.00 0.00 0.00 81 1013.5
20260902133802 81 208 3.0 4.0 0.00 0.00 0.00 81 1013.5
20260902133301 81 207 4.0 5.0 0.00 0.00 0.00 80 1013.5
20260902132756 80 206 3.0 5.0 0.00 0.00 0.00 81 1013.6
20260902132252 80 200 3.0 6.0 0.00 0.00 0.00 82 1013.6
20260902131748 80 205 3.0 5.0 0.00 0.00 0.00 82 1013.6
20260902131244 79 215 1.0 5.0 0.00 0.00 0.00 82 1013.7
20260902130743 79 196 3.0 7.0 0.00 0.00 0.00 83 1013.5
20260902130239 79 219 3.0 6.0 0.00 0.00 0.00 83 1013.7
20260902125734 79 214 3.0 5.0 0.00 0.00 0.00 83 1013.5
20260902125230 79 202 4.0 4.0 0.00 0.00 0.00 83 1013.6
20260902124726 79 210 2.0 5.0 0.00 0.00 0.00 83 1013.7
20260902124222 79 185 2.0 6.0 0.00 0.00 0.00 83 1013.7
20260902123717 78 206 0.0 4.0 0.00 0.00 0.00 83 1013.7
20260902123213 78 206 1.0 4.0 0.00 0.00 0.00 83 1013.6
20260902122712 78 236 2.0 4.0 0.00 0.00 0.00 84 1013.8
20260902122208 77 198 1.0 4.0 0.00 0.00 0.00 85 1013.9
20260902121702 77 209 2.0 3.0 0.00 0.00 0.00 86 1013.6
20260902121156 77 206 2.0 3.0 0.00 0.00 0.00 86 1013.7
20260902120653 76 199 2.0 3.0 0.00 0.00 0.00 87 1013.8
20260902120149 76 198 2.0 3.0 0.00 0.00 0.00 88 1013.6
20260902115648 75 203 3.0 4.0 0.00 0.00 0.00 88 1013.5
20260902115145 75 204 2.0 3.0 0.00 0.00 0.00 89 1013.4
20260902114640 75 195 0.0 3.0 0.00 0.00 0.00 89 1013.6
20260902114135 75 192 3.0 3.0 0.00 0.00 0.00 89 1013.6
20260902113631 75 191 2.0 3.0 0.00 0.00 0.00 89 1013.7
20260902113126 75 206 2.0 2.0 0.00 0.00 0.00 89 1013.7
20260902112621 75 209 1.0 3.0 0.00 0.00 0.00 89 1013.4
20260902112118 75 206 2.0 3.0 0.00 0.00 0.00 89 1013.5
20260902111608 75 198 0.0 3.0 0.00 0.00 0.00 89 1013.7
20260902111103 75 203 0.0 2.0 0.00 0.00 0.00 89 1013.8
20260902110559 75 212 0.0 2.0 0.00 0.00 0.00 89 1013.6
20260902110055 75 185 1.0 2.0 0.00 0.00 0.00 89 1013.6
20260902105555 75 203 0.0 3.0 0.00 0.00 0.00 89 1013.4
20260902105055 75 200 1.0 3.0 0.00 0.00 0.00 89 1013.5
20260902104551 75 201 0.0 3.0 0.00 0.00 0.00 89 1013.5
20260902104045 75 203 0.0 3.0 0.00 0.00 0.00 89 1013.7
20260902103540 75 204 2.0 2.0 0.00 0.00 0.00 89 1013.6
20260902103035 75 213 2.0 3.0 0.00 0.00 0.00 90 1013.6
20260902102532 75 213 2.0 3.0 0.00 0.00 0.00 90 1013.6
20260902102029 75 190 0.0 2.0 0.00 0.00 0.00 90 1013.5
20260902101524 75 195 0.0 3.0 0.00 0.00 0.00 90 1013.5
20260902101022 75 208 0.0 3.0 0.00 0.00 0.00 90 1013.6
20260902100518 75 228 0.0 2.0 0.00 0.00 0.00 90 1013.4
20260902100017 75 201 2.0 3.0 0.00 0.00 0.00 90 1013.3
20260902095517 75 206 0.0 2.0 0.00 0.00 0.00 90 1013.5
20260902095016 75 197 2.0 3.0 0.00 0.00 0.00 90 1013.3
20260902094512 75 213 2.0 3.0 0.00 0.00 0.00 90 1013.4
20260902094007 75 195 0.0 2.0 0.00 0.00 0.00 89 1013.3
20260902093502 75 199 2.0 3.0 0.00 0.00 0.00 89 1013.4
20260902093001 75 196 0.0 3.0 0.00 0.00 0.00 89 1013.2
20260902092457 75 215 0.0 2.0 0.00 0.00 0.00 90 1013.4
20260902091957 75 206 0.0 3.0 0.00 0.00 0.00 90 1013.3
20260902091452 75 200 1.0 2.0 0.00 0.00 0.00 90 1013.1
20260902090948 75 203 0.0 2.0 0.00 0.00 0.00 90 1013.3
20260902090443 76 198 1.0 2.0 0.00 0.00 0.00 90 1013.2
20260902085942 75 199 0.0 3.0 0.00 0.00 0.00 89 1013.3
20260902085437 76 200 0.0 2.0 0.00 0.00 0.00 89 1013.2
20260902084933 76 203 1.0 2.0 0.00 0.00 0.00 89 1013.2
20260902084429 76 198 0.0 2.0 0.00 0.00 0.00 89 1013.3
20260902083925 76 209 0.0 2.0 0.00 0.00 0.00 89 1013.1
20260902083424 76 195 0.0 2.0 0.00 0.00 0.00 88 1013.2
20260902082919 76 209 1.0 3.0 0.00 0.00 0.00 89 1013.1
20260902082415 76 195 0.0 1.0 0.00 0.00 0.00 89 1013.2
20260902081912 76 203 1.0 2.0 0.00 0.00 0.00 88 1013.1
20260902081408 76 189 2.0 2.0 0.00 0.00 0.00 88 1013.0
20260902080902 77 209 0.0 4.0 0.00 0.00 0.00 88 1013.0
20260902080359 77 192 1.0 3.0 0.00 0.00 0.00 88 1013.1
20260902075858 77 197 3.0 5.0 0.00 0.00 0.00 88 1013.0
20260902075354 77 194 0.0 2.0 0.00 0.00 0.00 89 1012.8
20260902074849 77 194 1.0 3.0 0.00 0.00 0.00 88 1012.7
20260902074345 77 194 1.0 3.0 0.00 0.00 0.00 88 1013.0
20260902073840 77 185 2.0 3.0 0.00 0.00 0.00 88 1012.8
20260902073336 77 201 0.0 3.0 0.00 0.00 0.00 87 1012.8
20260902072832 77 209 0.0 4.0 0.00 0.00 0.00 87 1012.8
20260902072327 78 185 0.0 4.0 0.00 0.00 0.00 87 1012.6
20260902071823 78 196 3.0 5.0 0.00 0.00 0.00 87 1012.9
20260902071318 78 192 1.0 4.0 0.00 0.00 0.00 87 1012.9
20260902070815 78 208 3.0 3.0 0.00 0.00 0.00 87 1012.7
20260902070314 78 198 3.0 3.0 0.00 0.00 0.00 87 1012.9
20260902065813 78 197 0.0 4.0 0.00 0.00 0.00 86 1012.9
20260902065308 78 192 1.0 5.0 0.00 0.00 0.00 87 1013.0
20260902064804 78 229 2.0 3.0 0.00 0.00 0.00 89 1013.1
20260902064300 77 180 0.0 2.0 0.00 0.00 0.00 90 1013.4
20260902063755 77 203 0.0 0.0 0.00 0.00 0.00 90 1013.2
20260902063250 77 203 0.0 0.0 0.00 0.00 0.00 89 1013.0
20260902062749 77 206 1.0 1.0 0.00 0.00 0.00 89 1013.0
20260902062244 78 200 0.0 2.0 0.00 0.00 0.00 88 1013.1
20260902061743 78 200 0.0 3.0 0.00 0.00 0.00 88 1012.9
20260902061238 78 209 0.0 3.0 0.00 0.00 0.00 88 1012.9
20260902060736 78 203 2.0 3.0 0.00 0.00 0.00 89 1013.0